STARLINK-31656, 60286

Orbit data source: Space-Track

STARLINK-31656, 60286 is a payload satellite owned by SpaceX/Seattle (US) in LEO that was launched on Sun, 28 Jul 2024 UTC via an FALCON 9 launch vehicle from the Air Force Eastern Test Range (AFETR). Payload-class satellites include a variety of spacecraft equipped with specific instruments for various scientific and technological missions. These include communications satellites like Starlink; space stations such as the ISS; scientific satellites like the Hubble; Earth observation satellites from companies like Planet Labs, Umbra, and HawkEye 360; GPS; miniature CubeSats for education and research; and military/defense satellites.

Loading next visibility...
Identifier
60286, 2024-132J
Orbit
LEO
Last TLE update
16 hours ago
Origin
Manufacturer
SpaceX/Seattle
Mission
Operational spacecraft
Bus & Motor
STARLINK V2M, Unknown motor
Mass
730 kg wet, ~700 kg dry
Launch date (UTC)
2024-07-28 (9 months ago)
Launch vehicle
FALCON 9
Launch site
Air Force Eastern Test Range (AFETR)
Object type
Payload
Rocket body
Debris
Shape & HBR
Unknown
Radar Cross Section
Large (>1 m²)

Expand to show TLE details & history

TLE from 16 hours ago
0 STARLINK-31656
1 60286U 24132J   25129.12732983  .00002933  00000-0  11105-3 0  9996
2 60286  53.1609  26.8794 0000785  76.3137 283.7951 15.30217688 44937
Epoch: 2025-05-09T03:03Z
Definitive object data (Epoch: 2025-05-09T03:03:21.297Z)
Latitude
-0.00003°
Longitude
113.85271°
Altitude
475.934 km
Speed
7.629 km/s
True Right ascension
01h 47m 31s
True Declination
0° 00' 00"
Sunlit
Object was in daylight at TLE epoch
Visualization TLE readout
Latitude
-1.43915°
Longitude
109.74708°
Altitude
476.154 km
Speed
7.629 km/s
Apparent Right ascension
23h 01m 24s
Apparent Declination
-55° 59' 56"
Sunlit
Object is in daylight
Visualization observer readout
Local Sidereal Time
02:54:15
Azimuth
209.953° SW
Elevation
-17.82°
Doppler factor
1
Orbital elements
Apogee altitude
475.957 km
Perigee altitude
474.881 km
Semi-major axis
6,853.556 km
Eccentricity
0.0000785
Inclination
53.1609°
RAAN
26.8794°
Arg. of periapsis
76.3137°
True anomaly
283.78636°
Mean anomaly
283.7951°
Eccentric anomaly
283.79073°
Mean motion
3.82533 °/min
BSTAR
0.00011105
Orbital period
94.11 mins
Loading maneuver chart data...
Loading SW <> Apogee altitude chart data...
Loading historical data...
Loading historical data...
Loading historical data...
Loading historical data...
Loading historical data...
Loading historical data...
Loading historical data...

STARLINK-31656 Visibility forecast

Observer location: undefined°, undefined°

Span
Click to sort rows by Start time (UTC) header in descending order
Start Az.
Max El. time (UTC)
Max El. Az.
Max El.
End time (UTC)
End Az.
4 mins2025-05-09 18:53:24.188Z172.512° S2025-05-09 18:55:24.188Z132.479° SE20.329°2025-05-09 18:57:24.188Z89.881° E
5 mins2025-05-09 20:31:24.188Z266.072° W2025-05-09 20:33:24.188Z335.236° NNW34.486°2025-05-09 20:36:24.188Z37.59° NE
4 mins2025-05-10 01:28:24.188Z347.262° N2025-05-10 01:30:24.188Z35.542° NE22.526°2025-05-10 01:32:24.188Z76.143° E
5 mins2025-05-10 03:06:24.188Z287.99° WNW2025-05-10 03:08:24.188Z211.104° SW36.912°2025-05-10 03:11:24.188Z150.587° SSE
|